owner,sensor,date,latitude,longitude,air_pressure(mBar),qcFlag 
COMPS,ioos:station:USF.COMPS:C13:1,2014-08-01T00:05:00Z,26.0630,-83.0730,1013.22,1111122 
COMPS,ioos:station:USF.COMPS:C13:1,2014-08-01T00:35:00Z,26.0630,-83.0730,1013.18,1111122 
COMPS,ioos:station:USF.COMPS:C13:1,2014-08-01T01:05:00Z,26.0630,-83.0730,1013.11,1111122 
COMPS,ioos:station:USF.COMPS:C13:1,2014-08-01T01:35:00Z,26.0630,-83.0730,1013.2,1111122 
COMPS,ioos:station:USF.COMPS:C13:1,2014-08-01T02:05:00Z,26.0630,-83.0730,1013.21,1111122 
COMPS,ioos:station:USF.COMPS:C13:1,2014-08-01T02:35:00Z,26.0630,-83.0730,1013.44,1111122 
COMPS,ioos:station:USF.COMPS:C13:1,2014-08-01T03:05:00Z,26.0630,-83.0730,1013.44,1111122 
COMPS,ioos:station:USF.COMPS:C13:1,2014-08-01T03:35:00Z,26.0630,-83.0730,1013.54,1111122 
COMPS,ioos:station:USF.COMPS:C13:1,2014-08-01T04:05:00Z,26.0630,-83.0730,1013.43,1111122 
COMPS,ioos:station:USF.COMPS:C13:1,2014-08-01T04:35:00Z,26.0630,-83.0730,1013.45,1111122 
COMPS,ioos:station:USF.COMPS:C13:1,2014-08-01T05:05:00Z,26.0630,-83.0730,1013.17,1111122 
COMPS,ioos:station:USF.COMPS:C13:1,2014-08-01T05:35:00Z,26.0630,-83.0730,1012.76,1111122 
COMPS,ioos:station:USF.COMPS:C13:1,2014-08-01T06:05:00Z,26.0630,-83.0730,1012.42,1111122 
COMPS,ioos:station:USF.COMPS:C13:1,2014-08-01T06:35:00Z,26.0630,-83.0730,1012.05,1111122 
COMPS,ioos:station:USF.COMPS:C13:1,2014-08-01T07:05:00Z,26.0630,-83.0730,1011.83,1111122 
COMPS,ioos:station:USF.COMPS:C13:1,2014-08-01T07:35:00Z,26.0630,-83.0730,1011.67,1111122 
COMPS,ioos:station:USF.COMPS:C13:1,2014-08-01T08:05:00Z,26.0630,-83.0730,1011.68,1111122 
COMPS,ioos:station:USF.COMPS:C13:1,2014-08-01T08:35:00Z,26.0630,-83.0730,1011.36,1111122 
COMPS,ioos:station:USF.COMPS:C13:1,2014-08-01T09:05:00Z,26.0630,-83.0730,1011.31,1111122 
COMPS,ioos:station:USF.COMPS:C13:1,2014-08-01T09:35:00Z,26.0630,-83.0730,1011.43,1111122 
COMPS,ioos:station:USF.COMPS:C13:1,2014-08-01T10:05:00Z,26.0630,-83.0730,1011.67,1111122 
COMPS,ioos:station:USF.COMPS:C13:1,2014-08-01T10:35:00Z,26.0630,-83.0730,1012.03,1111122 
COMPS,ioos:station:USF.COMPS:C13:1,2014-08-01T11:05:00Z,26.0630,-83.0730,1012.21,1111122 
COMPS,ioos:station:USF.COMPS:C13:1,2014-08-01T11:35:00Z,26.0630,-83.0730,1012.36,1111122 
COMPS,ioos:station:USF.COMPS:C13:1,2014-08-01T12:05:00Z,26.0630,-83.0730,1012.23,1111122 
COMPS,ioos:station:USF.COMPS:C13:1,2014-08-01T12:35:00Z,26.0630,-83.0730,1012.63,1111122 
COMPS,ioos:station:USF.COMPS:C13:1,2014-08-01T13:05:00Z,26.0630,-83.0730,1012.88,1111122 
COMPS,ioos:station:USF.COMPS:C13:1,2014-08-01T13:35:00Z,26.0630,-83.0730,1013.2,1111122 
COMPS,ioos:station:USF.COMPS:C13:1,2014-08-01T14:05:00Z,26.0630,-83.0730,1013.25,1111122 
COMPS,ioos:station:USF.COMPS:C13:1,2014-08-01T14:35:00Z,26.0630,-83.0730,1013.47,1111122 
COMPS,ioos:station:USF.COMPS:C13:1,2014-08-01T15:05:00Z,26.0630,-83.0730,1013.41,1111122 
COMPS,ioos:station:USF.COMPS:C13:1,2014-08-01T15:35:00Z,26.0630,-83.0730,1013.53,1111122 
COMPS,ioos:station:USF.COMPS:C13:1,2014-08-01T16:05:00Z,26.0630,-83.0730,1013.51,1111122 
COMPS,ioos:station:USF.COMPS:C13:1,2014-08-01T16:35:00Z,26.0630,-83.0730,1013.57,1111122 
COMPS,ioos:station:USF.COMPS:C13:1,2014-08-01T17:05:00Z,26.0630,-83.0730,1013.38,1111122 
COMPS,ioos:station:USF.COMPS:C13:1,2014-08-01T17:35:00Z,26.0630,-83.0730,1013.17,1111122 
COMPS,ioos:station:USF.COMPS:C13:1,2014-08-01T18:05:00Z,26.0630,-83.0730,1013.05,1111122 
COMPS,ioos:station:USF.COMPS:C13:1,2014-08-01T18:35:00Z,26.0630,-83.0730,1012.56,1111122 
COMPS,ioos:station:USF.COMPS:C13:1,2014-08-01T19:05:00Z,26.0630,-83.0730,1012.64,1111122 
COMPS,ioos:station:USF.COMPS:C13:1,2014-08-01T19:35:00Z,26.0630,-83.0730,1012.65,1111122 
COMPS,ioos:station:USF.COMPS:C13:1,2014-08-01T20:05:00Z,26.0630,-83.0730,1012.27,1111122 
COMPS,ioos:station:USF.COMPS:C13:1,2014-08-01T20:35:00Z,26.0630,-83.0730,1011.99,1111122 
COMPS,ioos:station:USF.COMPS:C13:1,2014-08-01T21:05:00Z,26.0630,-83.0730,1011.76,1111122 
COMPS,ioos:station:USF.COMPS:C13:1,2014-08-01T21:35:00Z,26.0630,-83.0730,1011.63,1111122 
COMPS,ioos:station:USF.COMPS:C13:1,2014-08-01T22:05:00Z,26.0630,-83.0730,1011.53,1111122 
COMPS,ioos:station:USF.COMPS:C13:1,2014-08-01T22:35:00Z,26.0630,-83.0730,1011.57,1111122 
COMPS,ioos:station:USF.COMPS:C13:1,2014-08-01T23:05:00Z,26.0630,-83.0730,1011.66,1111122 
COMPS,ioos:station:USF.COMPS:C13:1,2014-08-01T23:35:00Z,26.0630,-83.0730,1011.87,1111122 
COMPS,ioos:station:USF.COMPS:C13:1,2014-08-02T00:05:00Z,26.0630,-83.0730,1012.11,1111122 
COMPS,ioos:station:USF.COMPS:C13:1,2014-08-02T00:35:00Z,26.0630,-83.0730,1012.28,1111122 
COMPS,ioos:station:USF.COMPS:C13:1,2014-08-02T01:05:00Z,26.0630,-83.0730,1012.5,1111122 
COMPS,ioos:station:USF.COMPS:C13:1,2014-08-02T01:35:00Z,26.0630,-83.0730,1012.63,1111122 
COMPS,ioos:station:USF.COMPS:C13:1,2014-08-02T02:05:00Z,26.0630,-83.0730,1012.65,1111122 
COMPS,ioos:station:USF.COMPS:C13:1,2014-08-02T02:35:00Z,26.0630,-83.0730,1012.91,1111122 
COMPS,ioos:station:USF.COMPS:C13:1,2014-08-02T03:05:00Z,26.0630,-83.0730,1013.0,1111122 
COMPS,ioos:station:USF.COMPS:C13:1,2014-08-02T03:35:00Z,26.0630,-83.0730,1013.18,1111122 
COMPS,ioos:station:USF.COMPS:C13:1,2014-08-02T04:05:00Z,26.0630,-83.0730,1012.92,1111122 
COMPS,ioos:station:USF.COMPS:C13:1,2014-08-02T04:35:00Z,26.0630,-83.0730,1012.72,1111122 
COMPS,ioos:station:USF.COMPS:C13:1,2014-08-02T05:05:00Z,26.0630,-83.0730,1012.52,1111122 
COMPS,ioos:station:USF.COMPS:C13:1,2014-08-02T05:35:00Z,26.0630,-83.0730,1012.24,1111122 
COMPS,ioos:station:USF.COMPS:C13:1,2014-08-02T06:05:00Z,26.0630,-83.0730,1011.72,1111122 
COMPS,ioos:station:USF.COMPS:C13:1,2014-08-02T06:35:00Z,26.0630,-83.0730,1011.82,1111122 
COMPS,ioos:station:USF.COMPS:C13:1,2014-08-02T07:05:00Z,26.0630,-83.0730,1011.41,1111122 
COMPS,ioos:station:USF.COMPS:C13:1,2014-08-02T07:35:00Z,26.0630,-83.0730,1011.12,1111122 
COMPS,ioos:station:USF.COMPS:C13:1,2014-08-02T08:05:00Z,26.0630,-83.0730,1011.01,1111122 
COMPS,ioos:station:USF.COMPS:C13:1,2014-08-02T08:35:00Z,26.0630,-83.0730,1010.86,1111122 
COMPS,ioos:station:USF.COMPS:C13:1,2014-08-02T09:05:00Z,26.0630,-83.0730,1010.59,1111122 
COMPS,ioos:station:USF.COMPS:C13:1,2014-08-02T09:35:00Z,26.0630,-83.0730,1010.6,1111122 
COMPS,ioos:station:USF.COMPS:C13:1,2014-08-02T10:05:00Z,26.0630,-83.0730,1010.72,1111122 
COMPS,ioos:station:USF.COMPS:C13:1,2014-08-02T10:35:00Z,26.0630,-83.0730,1011.0,1111122 
COMPS,ioos:station:USF.COMPS:C13:1,2014-08-02T11:05:00Z,26.0630,-83.0730,1011.32,1111122 
COMPS,ioos:station:USF.COMPS:C13:1,2014-08-02T11:35:00Z,26.0630,-83.0730,1011.67,1111122 
COMPS,ioos:station:USF.COMPS:C13:1,2014-08-02T12:05:00Z,26.0630,-83.0730,1011.9,1111122 
COMPS,ioos:station:USF.COMPS:C13:1,2014-08-02T12:35:00Z,26.0630,-83.0730,1012.26,1111122 
COMPS,ioos:station:USF.COMPS:C13:1,2014-08-02T13:05:00Z,26.0630,-83.0730,1012.37,1111122 
COMPS,ioos:station:USF.COMPS:C13:1,2014-08-02T13:35:00Z,26.0630,-83.0730,1012.67,1111122 
COMPS,ioos:station:USF.COMPS:C13:1,2014-08-02T14:05:00Z,26.0630,-83.0730,1012.64,1111122 
COMPS,ioos:station:USF.COMPS:C13:1,2014-08-02T14:35:00Z,26.0630,-83.0730,1012.89,1111122 
COMPS,ioos:station:USF.COMPS:C13:1,2014-08-02T15:05:00Z,26.0630,-83.0730,1012.94,1111122 
COMPS,ioos:station:USF.COMPS:C13:1,2014-08-02T15:35:00Z,26.0630,-83.0730,1013.02,1111122 
COMPS,ioos:station:USF.COMPS:C13:1,2014-08-02T16:05:00Z,26.0630,-83.0730,1012.89,1111122 
COMPS,ioos:station:USF.COMPS:C13:1,2014-08-02T16:35:00Z,26.0630,-83.0730,1013.02,1111122 
COMPS,ioos:station:USF.COMPS:C13:1,2014-08-02T17:05:00Z,26.0630,-83.0730,1012.87,1111122 
COMPS,ioos:station:USF.COMPS:C13:1,2014-08-02T17:35:00Z,26.0630,-83.0730,1012.71,1111122 
COMPS,ioos:station:USF.COMPS:C13:1,2014-08-02T18:05:00Z,26.0630,-83.0730,1012.52,1111122 
COMPS,ioos:station:USF.COMPS:C13:1,2014-08-02T18:35:00Z,26.0630,-83.0730,1011.81,1111122 
COMPS,ioos:station:USF.COMPS:C13:1,2014-08-02T19:05:00Z,26.0630,-83.0730,1011.81,1111122 
COMPS,ioos:station:USF.COMPS:C13:1,2014-08-02T19:35:00Z,26.0630,-83.0730,1011.5,1111122 
COMPS,ioos:station:USF.COMPS:C13:1,2014-08-02T20:05:00Z,26.0630,-83.0730,1011.3,1111122 
COMPS,ioos:station:USF.COMPS:C13:1,2014-08-02T20:35:00Z,26.0630,-83.0730,1011.1,1111122 
COMPS,ioos:station:USF.COMPS:C13:1,2014-08-02T21:05:00Z,26.0630,-83.0730,1010.89,1111122 
COMPS,ioos:station:USF.COMPS:C13:1,2014-08-02T21:35:00Z,26.0630,-83.0730,1010.9,1111122 
COMPS,ioos:station:USF.COMPS:C13:1,2014-08-02T22:05:00Z,26.0630,-83.0730,1010.59,1111122 
COMPS,ioos:station:USF.COMPS:C13:1,2014-08-02T22:35:00Z,26.0630,-83.0730,1010.54,1111122 
COMPS,ioos:station:USF.COMPS:C13:1,2014-08-02T23:05:00Z,26.0630,-83.0730,1010.74,1111122 
COMPS,ioos:station:USF.COMPS:C13:1,2014-08-02T23:35:00Z,26.0630,-83.0730,1010.84,1111122 
COMPS,ioos:station:USF.COMPS:C13:1,2014-08-03T00:05:00Z,26.0630,-83.0730,1010.74,1111122 
COMPS,ioos:station:USF.COMPS:C13:1,2014-08-03T00:35:00Z,26.0630,-83.0730,1011.01,1111122 
COMPS,ioos:station:USF.COMPS:C13:1,2014-08-03T01:05:00Z,26.0630,-83.0730,1011.44,1111122 
COMPS,ioos:station:USF.COMPS:C13:1,2014-08-03T01:35:00Z,26.0630,-83.0730,1011.53,1111122 
COMPS,ioos:station:USF.COMPS:C13:1,2014-08-03T02:05:00Z,26.0630,-83.0730,1011.71,1111122 
COMPS,ioos:station:USF.COMPS:C13:1,2014-08-03T02:35:00Z,26.0630,-83.0730,1012.03,1111122 
COMPS,ioos:station:USF.COMPS:C13:1,2014-08-03T03:05:00Z,26.0630,-83.0730,1012.66,1111122 
COMPS,ioos:station:USF.COMPS:C13:1,2014-08-03T03:35:00Z,26.0630,-83.0730,1012.45,1111122 
COMPS,ioos:station:USF.COMPS:C13:1,2014-08-03T04:05:00Z,26.0630,-83.0730,1012.34,1111122 
COMPS,ioos:station:USF.COMPS:C13:1,2014-08-03T04:35:00Z,26.0630,-83.0730,1012.39,1111122 
COMPS,ioos:station:USF.COMPS:C13:1,2014-08-03T05:05:00Z,26.0630,-83.0730,1011.84,1111122 
COMPS,ioos:station:USF.COMPS:C13:1,2014-08-03T05:35:00Z,26.0630,-83.0730,1010.81,1111122 
COMPS,ioos:station:USF.COMPS:C13:1,2014-08-03T06:05:00Z,26.0630,-83.0730,1009.94,1111122 
COMPS,ioos:station:USF.COMPS:C13:1,2014-08-03T06:35:00Z,26.0630,-83.0730,1010.07,1111122 
COMPS,ioos:station:USF.COMPS:C13:1,2014-08-03T07:05:00Z,26.0630,-83.0730,1010.15,1111122 
COMPS,ioos:station:USF.COMPS:C13:1,2014-08-03T07:35:00Z,26.0630,-83.0730,1010.31,1111122 
COMPS,ioos:station:USF.COMPS:C13:1,2014-08-03T08:05:00Z,26.0630,-83.0730,1010.15,1111122 
COMPS,ioos:station:USF.COMPS:C13:1,2014-08-03T08:35:00Z,26.0630,-83.0730,1009.99,1111122 
COMPS,ioos:station:USF.COMPS:C13:1,2014-08-03T09:05:00Z,26.0630,-83.0730,1010.01,1111122 
COMPS,ioos:station:USF.COMPS:C13:1,2014-08-03T09:35:00Z,26.0630,-83.0730,1009.98,1111122 
COMPS,ioos:station:USF.COMPS:C13:1,2014-08-03T10:05:00Z,26.0630,-83.0730,1010.31,1111122 
COMPS,ioos:station:USF.COMPS:C13:1,2014-08-03T10:35:00Z,26.0630,-83.0730,1010.51,1111122 
COMPS,ioos:station:USF.COMPS:C13:1,2014-08-03T11:05:00Z,26.0630,-83.0730,1010.83,1111122 
COMPS,ioos:station:USF.COMPS:C13:1,2014-08-03T11:35:00Z,26.0630,-83.0730,1011.09,1111122 
COMPS,ioos:station:USF.COMPS:C13:1,2014-08-03T12:05:00Z,26.0630,-83.0730,1011.36,1111122 
COMPS,ioos:station:USF.COMPS:C13:1,2014-08-03T12:35:00Z,26.0630,-83.0730,1011.73,1111122 
COMPS,ioos:station:USF.COMPS:C13:1,2014-08-03T13:05:00Z,26.0630,-83.0730,1011.8,1111122 
COMPS,ioos:station:USF.COMPS:C13:1,2014-08-03T13:35:00Z,26.0630,-83.0730,1011.82,1111122 
COMPS,ioos:station:USF.COMPS:C13:1,2014-08-03T14:05:00Z,26.0630,-83.0730,1011.81,1111122 
COMPS,ioos:station:USF.COMPS:C13:1,2014-08-03T14:35:00Z,26.0630,-83.0730,1011.68,1111122 
COMPS,ioos:station:USF.COMPS:C13:1,2014-08-03T15:05:00Z,26.0630,-83.0730,1011.64,1111122 
COMPS,ioos:station:USF.COMPS:C13:1,2014-08-03T15:35:00Z,26.0630,-83.0730,1011.81,1111122 
COMPS,ioos:station:USF.COMPS:C13:1,2014-08-03T16:05:00Z,26.0630,-83.0730,1011.89,1111122 
COMPS,ioos:station:USF.COMPS:C13:1,2014-08-03T16:35:00Z,26.0630,-83.0730,1011.81,1111122 
COMPS,ioos:station:USF.COMPS:C13:1,2014-08-03T17:05:00Z,26.0630,-83.0730,1012.11,1111122 
COMPS,ioos:station:USF.COMPS:C13:1,2014-08-03T17:35:00Z,26.0630,-83.0730,1012.2,1111122 
COMPS,ioos:station:USF.COMPS:C13:1,2014-08-03T18:05:00Z,26.0630,-83.0730,1011.93,1111122 
COMPS,ioos:station:USF.COMPS:C13:1,2014-08-03T18:35:00Z,26.0630,-83.0730,1011.81,1111122 
COMPS,ioos:station:USF.COMPS:C13:1,2014-08-03T19:05:00Z,26.0630,-83.0730,1011.44,1111122 
COMPS,ioos:station:USF.COMPS:C13:1,2014-08-03T19:35:00Z,26.0630,-83.0730,1010.93,1111122 
COMPS,ioos:station:USF.COMPS:C13:1,2014-08-03T20:05:00Z,26.0630,-83.0730,1010.52,1111122 
COMPS,ioos:station:USF.COMPS:C13:1,2014-08-03T20:35:00Z,26.0630,-83.0730,1010.47,1111122 
COMPS,ioos:station:USF.COMPS:C13:1,2014-08-03T22:05:00Z,26.0630,-83.0730,1010.45,1111122 
COMPS,ioos:station:USF.COMPS:C13:1,2014-08-03T22:35:00Z,26.0630,-83.0730,1010.06,1111122 
COMPS,ioos:station:USF.COMPS:C13:1,2014-08-03T23:05:00Z,26.0630,-83.0730,1009.97,1111122 
COMPS,ioos:station:USF.COMPS:C13:1,2014-08-03T23:35:00Z,26.0630,-83.0730,1009.94,1111122 
COMPS,ioos:station:USF.COMPS:C13:1,2014-08-04T00:05:00Z,26.0630,-83.0730,1010.03,1111122 
COMPS,ioos:station:USF.COMPS:C13:1,2014-08-04T00:35:00Z,26.0630,-83.0730,1010.6,1111122 
COMPS,ioos:station:USF.COMPS:C13:1,2014-08-04T01:05:00Z,26.0630,-83.0730,1010.7,1111122 
COMPS,ioos:station:USF.COMPS:C13:1,2014-08-04T01:35:00Z,26.0630,-83.0730,1011.01,1111122 
COMPS,ioos:station:USF.COMPS:C13:1,2014-08-04T02:05:00Z,26.0630,-83.0730,1011.4,1111122 
COMPS,ioos:station:USF.COMPS:C13:1,2014-08-04T02:35:00Z,26.0630,-83.0730,1011.41,1111122 
COMPS,ioos:station:USF.COMPS:C13:1,2014-08-04T03:05:00Z,26.0630,-83.0730,1011.36,1111122 
COMPS,ioos:station:USF.COMPS:C13:1,2014-08-04T03:35:00Z,26.0630,-83.0730,1011.37,1111122 
COMPS,ioos:station:USF.COMPS:C13:1,2014-08-04T04:05:00Z,26.0630,-83.0730,1011.41,1111122 
COMPS,ioos:station:USF.COMPS:C13:1,2014-08-04T04:35:00Z,26.0630,-83.0730,1011.43,1111122 
COMPS,ioos:station:USF.COMPS:C13:1,2014-08-04T05:05:00Z,26.0630,-83.0730,1011.41,1111122 
COMPS,ioos:station:USF.COMPS:C13:1,2014-08-04T05:35:00Z,26.0630,-83.0730,1011.4,1111122 
COMPS,ioos:station:USF.COMPS:C13:1,2014-08-04T06:05:00Z,26.0630,-83.0730,1011.03,1111122 
COMPS,ioos:station:USF.COMPS:C13:1,2014-08-04T06:35:00Z,26.0630,-83.0730,1010.62,1111122 
COMPS,ioos:station:USF.COMPS:C13:1,2014-08-04T07:05:00Z,26.0630,-83.0730,1010.18,1111122 
COMPS,ioos:station:USF.COMPS:C13:1,2014-08-04T07:35:00Z,26.0630,-83.0730,1010.03,1111122 
COMPS,ioos:station:USF.COMPS:C13:1,2014-08-04T08:05:00Z,26.0630,-83.0730,1010.45,1111122 
COMPS,ioos:station:USF.COMPS:C13:1,2014-08-04T08:35:00Z,26.0630,-83.0730,1010.57,1111122 
COMPS,ioos:station:USF.COMPS:C13:1,2014-08-04T09:05:00Z,26.0630,-83.0730,1010.56,1111122 
COMPS,ioos:station:USF.COMPS:C13:1,2014-08-04T09:35:00Z,26.0630,-83.0730,1010.79,1111122 
COMPS,ioos:station:USF.COMPS:C13:1,2014-08-04T10:05:00Z,26.0630,-83.0730,1010.8,1111122 
COMPS,ioos:station:USF.COMPS:C13:1,2014-08-04T10:35:00Z,26.0630,-83.0730,1010.91,1111122 
COMPS,ioos:station:USF.COMPS:C13:1,2014-08-04T11:05:00Z,26.0630,-83.0730,1011.18,1111122 
COMPS,ioos:station:USF.COMPS:C13:1,2014-08-04T11:35:00Z,26.0630,-83.0730,1011.36,1111122 
COMPS,ioos:station:USF.COMPS:C13:1,2014-08-04T12:05:00Z,26.0630,-83.0730,1011.68,1111122 
COMPS,ioos:station:USF.COMPS:C13:1,2014-08-04T12:35:00Z,26.0630,-83.0730,1011.79,1111122 
COMPS,ioos:station:USF.COMPS:C13:1,2014-08-04T13:05:00Z,26.0630,-83.0730,1012.01,1111122 
COMPS,ioos:station:USF.COMPS:C13:1,2014-08-04T13:35:00Z,26.0630,-83.0730,1012.03,1111122 
COMPS,ioos:station:USF.COMPS:C13:1,2014-08-04T14:05:00Z,26.0630,-83.0730,1012.23,1111122 
COMPS,ioos:station:USF.COMPS:C13:1,2014-08-04T14:35:00Z,26.0630,-83.0730,1012.61,1111122 
COMPS,ioos:station:USF.COMPS:C13:1,2014-08-04T15:05:00Z,26.0630,-83.0730,1012.88,1111122 
COMPS,ioos:station:USF.COMPS:C13:1,2014-08-04T15:35:00Z,26.0630,-83.0730,1012.98,1111122 
COMPS,ioos:station:USF.COMPS:C13:1,2014-08-04T16:05:00Z,26.0630,-83.0730,1012.69,1111122 
COMPS,ioos:station:USF.COMPS:C13:1,2014-08-04T16:35:00Z,26.0630,-83.0730,1012.64,1111122 
COMPS,ioos:station:USF.COMPS:C13:1,2014-08-04T17:05:00Z,26.0630,-83.0730,1012.37,1111122 
COMPS,ioos:station:USF.COMPS:C13:1,2014-08-04T17:35:00Z,26.0630,-83.0730,1012.29,1111122 
COMPS,ioos:station:USF.COMPS:C13:1,2014-08-04T18:05:00Z,26.0630,-83.0730,1011.99,1111122 
COMPS,ioos:station:USF.COMPS:C13:1,2014-08-04T18:35:00Z,26.0630,-83.0730,1012.26,1111122 
COMPS,ioos:station:USF.COMPS:C13:1,2014-08-04T19:05:00Z,26.0630,-83.0730,1012.28,1111122 
COMPS,ioos:station:USF.COMPS:C13:1,2014-08-04T19:35:00Z,26.0630,-83.0730,1012.27,1111122 
COMPS,ioos:station:USF.COMPS:C13:1,2014-08-04T20:05:00Z,26.0630,-83.0730,1012.01,1111122 
COMPS,ioos:station:USF.COMPS:C13:1,2014-08-04T20:35:00Z,26.0630,-83.0730,1011.76,1111122 
COMPS,ioos:station:USF.COMPS:C13:1,2014-08-04T21:05:00Z,26.0630,-83.0730,1011.83,1111122 
COMPS,ioos:station:USF.COMPS:C13:1,2014-08-04T21:35:00Z,26.0630,-83.0730,1011.94,1111122 
COMPS,ioos:station:USF.COMPS:C13:1,2014-08-04T22:05:00Z,26.0630,-83.0730,1011.98,1111122 
COMPS,ioos:station:USF.COMPS:C13:1,2014-08-04T22:35:00Z,26.0630,-83.0730,1012.09,1111122 
COMPS,ioos:station:USF.COMPS:C13:1,2014-08-04T23:05:00Z,26.0630,-83.0730,1012.54,1111122 
COMPS,ioos:station:USF.COMPS:C13:1,2014-08-04T23:35:00Z,26.0630,-83.0730,1012.96,1111122 
COMPS,ioos:station:USF.COMPS:C13:1,2014-08-05T00:05:00Z,26.0630,-83.0730,1012.62,1111122 
COMPS,ioos:station:USF.COMPS:C13:1,2014-08-05T00:35:00Z,26.0630,-83.0730,1012.86,1111122 
COMPS,ioos:station:USF.COMPS:C13:1,2014-08-05T01:05:00Z,26.0630,-83.0730,1013.19,1111122 
COMPS,ioos:station:USF.COMPS:C13:1,2014-08-05T01:35:00Z,26.0630,-83.0730,1013.63,1111122 
COMPS,ioos:station:USF.COMPS:C13:1,2014-08-05T03:05:00Z,26.0630,-83.0730,1014.69,1111122 
COMPS,ioos:station:USF.COMPS:C13:1,2014-08-05T03:35:00Z,26.0630,-83.0730,1014.75,1111122 
COMPS,ioos:station:USF.COMPS:C13:1,2014-08-05T05:05:00Z,26.0630,-83.0730,1014.03,1111122 
COMPS,ioos:station:USF.COMPS:C13:1,2014-08-05T05:35:00Z,26.0630,-83.0730,1013.95,1111122 
COMPS,ioos:station:USF.COMPS:C13:1,2014-08-05T06:05:00Z,26.0630,-83.0730,1013.65,1111122 
COMPS,ioos:station:USF.COMPS:C13:1,2014-08-05T06:35:00Z,26.0630,-83.0730,1013.04,1111122 
COMPS,ioos:station:USF.COMPS:C13:1,2014-08-05T07:05:00Z,26.0630,-83.0730,1012.67,1111122 
COMPS,ioos:station:USF.COMPS:C13:1,2014-08-05T07:35:00Z,26.0630,-83.0730,1012.46,1111122 
COMPS,ioos:station:USF.COMPS:C13:1,2014-08-05T08:05:00Z,26.0630,-83.0730,1012.39,1111122 
COMPS,ioos:station:USF.COMPS:C13:1,2014-08-05T08:35:00Z,26.0630,-83.0730,1012.52,1111122 
COMPS,ioos:station:USF.COMPS:C13:1,2014-08-05T09:05:00Z,26.0630,-83.0730,1012.44,1111122 
COMPS,ioos:station:USF.COMPS:C13:1,2014-08-05T09:35:00Z,26.0630,-83.0730,1012.63,1111122 
COMPS,ioos:station:USF.COMPS:C13:1,2014-08-05T10:05:00Z,26.0630,-83.0730,1013.08,1111122 
COMPS,ioos:station:USF.COMPS:C13:1,2014-08-05T10:35:00Z,26.0630,-83.0730,1013.28,1111122 
COMPS,ioos:station:USF.COMPS:C13:1,2014-08-05T11:05:00Z,26.0630,-83.0730,1013.6,1111122 
COMPS,ioos:station:USF.COMPS:C13:1,2014-08-05T11:35:00Z,26.0630,-83.0730,1014.07,1111122 
COMPS,ioos:station:USF.COMPS:C13:1,2014-08-05T12:05:00Z,26.0630,-83.0730,1014.62,1111122 
COMPS,ioos:station:USF.COMPS:C13:1,2014-08-05T12:35:00Z,26.0630,-83.0730,1015.12,1111122 
COMPS,ioos:station:USF.COMPS:C13:1,2014-08-05T13:05:00Z,26.0630,-83.0730,1015.34,1111122 
COMPS,ioos:station:USF.COMPS:C13:1,2014-08-05T13:35:00Z,26.0630,-83.0730,1015.6,1111122 
COMPS,ioos:station:USF.COMPS:C13:1,2014-08-05T14:05:00Z,26.0630,-83.0730,1015.96,1111122 
COMPS,ioos:station:USF.COMPS:C13:1,2014-08-05T14:35:00Z,26.0630,-83.0730,1016.36,1111122 
COMPS,ioos:station:USF.COMPS:C13:1,2014-08-05T15:05:00Z,26.0630,-83.0730,1016.7,1111122 
COMPS,ioos:station:USF.COMPS:C13:1,2014-08-05T15:35:00Z,26.0630,-83.0730,1016.79,1111122 
COMPS,ioos:station:USF.COMPS:C13:1,2014-08-05T16:05:00Z,26.0630,-83.0730,1016.79,1111122 
COMPS,ioos:station:USF.COMPS:C13:1,2014-08-05T16:35:00Z,26.0630,-83.0730,1016.61,1111122 
COMPS,ioos:station:USF.COMPS:C13:1,2014-08-05T17:05:00Z,26.0630,-83.0730,1016.43,1111122 
COMPS,ioos:station:USF.COMPS:C13:1,2014-08-05T17:35:00Z,26.0630,-83.0730,1016.66,1111122 
COMPS,ioos:station:USF.COMPS:C13:1,2014-08-05T18:05:00Z,26.0630,-83.0730,1016.43,1111122 
COMPS,ioos:station:USF.COMPS:C13:1,2014-08-05T18:35:00Z,26.0630,-83.0730,1016.2,1111122 
COMPS,ioos:station:USF.COMPS:C13:1,2014-08-05T19:05:00Z,26.0630,-83.0730,1015.86,1111122 
COMPS,ioos:station:USF.COMPS:C13:1,2014-08-05T19:35:00Z,26.0630,-83.0730,1015.92,1111122 
COMPS,ioos:station:USF.COMPS:C13:1,2014-08-05T20:05:00Z,26.0630,-83.0730,1015.89,1111122 
COMPS,ioos:station:USF.COMPS:C13:1,2014-08-05T20:35:00Z,26.0630,-83.0730,1015.82,1111122 
COMPS,ioos:station:USF.COMPS:C13:1,2014-08-05T21:05:00Z,26.0630,-83.0730,1015.16,1111122 
COMPS,ioos:station:USF.COMPS:C13:1,2014-08-05T21:35:00Z,26.0630,-83.0730,1015.3,1111122 
COMPS,ioos:station:USF.COMPS:C13:1,2014-08-05T22:05:00Z,26.0630,-83.0730,1015.47,1111122 
COMPS,ioos:station:USF.COMPS:C13:1,2014-08-05T22:35:00Z,26.0630,-83.0730,1015.52,1111122 
COMPS,ioos:station:USF.COMPS:C13:1,2014-08-05T23:05:00Z,26.0630,-83.0730,1015.25,1111122 
COMPS,ioos:station:USF.COMPS:C13:1,2014-08-05T23:35:00Z,26.0630,-83.0730,1015.33,1111122 
COMPS,ioos:station:USF.COMPS:C13:1,2014-08-06T00:05:00Z,26.0630,-83.0730,1015.33,1111122 
COMPS,ioos:station:USF.COMPS:C13:1,2014-08-06T00:35:00Z,26.0630,-83.0730,1015.44,1111122 
COMPS,ioos:station:USF.COMPS:C13:1,2014-08-06T01:05:00Z,26.0630,-83.0730,1015.48,1111122 
COMPS,ioos:station:USF.COMPS:C13:1,2014-08-06T01:35:00Z,26.0630,-83.0730,1015.64,1111122 
COMPS,ioos:station:USF.COMPS:C13:1,2014-08-06T02:05:00Z,26.0630,-83.0730,1015.91,1111122 
COMPS,ioos:station:USF.COMPS:C13:1,2014-08-06T02:35:00Z,26.0630,-83.0730,1015.9,1111122 
COMPS,ioos:station:USF.COMPS:C13:1,2014-08-06T03:05:00Z,26.0630,-83.0730,1015.79,1111122 
COMPS,ioos:station:USF.COMPS:C13:1,2014-08-06T03:35:00Z,26.0630,-83.0730,1015.66,1111122 
COMPS,ioos:station:USF.COMPS:C13:1,2014-08-06T04:05:00Z,26.0630,-83.0730,1015.64,1111122 
COMPS,ioos:station:USF.COMPS:C13:1,2014-08-06T04:35:00Z,26.0630,-83.0730,1015.47,1111122 
COMPS,ioos:station:USF.COMPS:C13:1,2014-08-06T05:05:00Z,26.0630,-83.0730,1015.39,1111122 
COMPS,ioos:station:USF.COMPS:C13:1,2014-08-06T05:35:00Z,26.0630,-83.0730,1015.33,1111122 
COMPS,ioos:station:USF.COMPS:C13:1,2014-08-06T06:05:00Z,26.0630,-83.0730,1015.1,1111122 
COMPS,ioos:station:USF.COMPS:C13:1,2014-08-06T06:35:00Z,26.0630,-83.0730,1014.96,1111122 
COMPS,ioos:station:USF.COMPS:C13:1,2014-08-06T07:05:00Z,26.0630,-83.0730,1014.82,1111122 
COMPS,ioos:station:USF.COMPS:C13:1,2014-08-06T07:35:00Z,26.0630,-83.0730,1014.78,1111122 
COMPS,ioos:station:USF.COMPS:C13:1,2014-08-06T08:05:00Z,26.0630,-83.0730,1014.81,1111122 
COMPS,ioos:station:USF.COMPS:C13:1,2014-08-06T08:35:00Z,26.0630,-83.0730,1014.8,1111122 
COMPS,ioos:station:USF.COMPS:C13:1,2014-08-06T09:05:00Z,26.0630,-83.0730,1014.84,1111122 
COMPS,ioos:station:USF.COMPS:C13:1,2014-08-06T09:35:00Z,26.0630,-83.0730,1014.93,1111122 
COMPS,ioos:station:USF.COMPS:C13:1,2014-08-06T10:05:00Z,26.0630,-83.0730,1014.95,1111122 
COMPS,ioos:station:USF.COMPS:C13:1,2014-08-06T10:35:00Z,26.0630,-83.0730,1015.07,1111122 
COMPS,ioos:station:USF.COMPS:C13:1,2014-08-06T11:05:00Z,26.0630,-83.0730,1015.2,1111122 
COMPS,ioos:station:USF.COMPS:C13:1,2014-08-06T11:35:00Z,26.0630,-83.0730,1015.46,1111122 
COMPS,ioos:station:USF.COMPS:C13:1,2014-08-06T12:05:00Z,26.0630,-83.0730,1015.61,1111122 
COMPS,ioos:station:USF.COMPS:C13:1,2014-08-06T12:35:00Z,26.0630,-83.0730,1015.92,1111122 
COMPS,ioos:station:USF.COMPS:C13:1,2014-08-06T13:05:00Z,26.0630,-83.0730,1016.3,1111122 
COMPS,ioos:station:USF.COMPS:C13:1,2014-08-06T13:35:00Z,26.0630,-83.0730,1016.24,1111122 
COMPS,ioos:station:USF.COMPS:C13:1,2014-08-06T14:05:00Z,26.0630,-83.0730,1016.23,1111122 
COMPS,ioos:station:USF.COMPS:C13:1,2014-08-06T14:35:00Z,26.0630,-83.0730,1016.41,1111122 
COMPS,ioos:station:USF.COMPS:C13:1,2014-08-06T15:05:00Z,26.0630,-83.0730,1016.35,1111122 
COMPS,ioos:station:USF.COMPS:C13:1,2014-08-06T15:35:00Z,26.0630,-83.0730,1016.41,1111122 